| Date | Time | Temp. (oF) | Dew Point (oF) | Rel. Hum. (%) | Press. (in.) | Wind Dir. | Wind Speed (mph) | Hourly Rainfall (in.) |
|
|---|---|---|---|---|---|---|---|---|---|
| 1 | 12/13 | 23:58 | 39 | 39 | 100 | 29.52 | NE | 8 | 0.01 |
| 2 | 12/13 | 23:00 | 37 | 36 | 100 | 29.56 | NE | 7 | 0.02 |
| 3 | 12/13 | 22:00 | 36 | 36 | 100 | 29.63 | NE | 5 | 0.01 |
| 4 | 12/13 | 21:00 | 35 | 35 | 100 | 29.71 | E | 5 | 0.01 |
| 5 | 12/13 | 20:00 | 35 | 35 | 100 | 29.78 | NNE | 5 | 0.00 |
| 6 | 12/13 | 19:00 | 34 | 33 | 100 | 29.85 | NNW | 2 | 0.07 |
| 7 | 12/13 | 18:00 | 34 | 33 | 100 | 29.90 | NW | 4 | 0.05 |
| 8 | 12/13 | 17:00 | 34 | 33 | 100 | 29.93 | ESE | 2 | 0.07 |
| 9 | 12/13 | 16:00 | 33 | 32 | 100 | 29.93 | ENE | 5 | 0.09 |
| 10 | 12/13 | 15:00 | 33 | 32 | 100 | 29.97 | ENE | 3 | 0.03 |
| 11 | 12/13 | 14:00 | 33 | 32 | 100 | 30.01 | NE | 4 | 0.00 |
| 12 | 12/13 | 13:00 | 32 | 32 | 100 | 30.04 | NNE | 4 | 0.00 |
| 13 | 12/13 | 12:00 | 31 | 31 | 100 | 30.11 | ESE | 1 | 0.00 |
| 14 | 12/13 | 11:00 | 30 | 30 | 100 | 30.15 | NE | 0 | 0.00 |
| 15 | 12/13 | 10:00 | 28 | 27 | 100 | 30.20 | NNE | 1 | 0.00 |
| 16 | 12/13 | 09:00 | 27 | 27 | 100 | 30.20 | SSE | 2 | 0.00 |
| 17 | 12/13 | 08:00 | 26 | 26 | 100 | 30.20 | NE | 5 | 0.00 |
| 18 | 12/13 | 07:00 | 25 | 24 | 100 | 30.21 | ENE | 0 | 0.00 |
| 19 | 12/13 | 06:00 | 25 | 24 | 100 | 30.24 | SSW | 1 | 0.00 |
| 20 | 12/13 | 05:00 | 25 | 24 | 100 | 30.24 | SW | 1 | 0.00 |
| 21 | 12/13 | 04:00 | 27 | 27 | 100 | 30.21 | NNW | 1 | 0.00 |
| 22 | 12/13 | 03:00 | 27 | 27 | 100 | 30.22 | S | 0 | 0.00 |
| 23 | 12/13 | 02:00 | 28 | 27 | 100 | 30.22 | SSW | 0 | 0.00 |
| 24 | 12/13 | 01:00 | 30 | 30 | 100 | 30.22 | N | 0 | 0.00 |